Погода в Вурнарах

Россия / Чувашская Республика     55°29′25″N   46°57′29″E
темп.,
°C
ветер,
м/с
пор.,
м/с
влажн.,
%
обл.,
%
осадки,
мм/ч
давл.,
гПа
погр.,
м
24 июня, чт
чт2400:00+19сз228183 0.1 102011
03:00+18зсз228488 0.1 102023
06:00+22сз23825 0.0 1020116
09:00+27ссз24655 0.0 1020476
12:00+30ссз235528 0.0 10191013
15:00+30ссз235398 0.0 10181337
18:00+29з2370100 0.0 101786
21:00+24з367919 0.0 101781
25 июня, пт
пт2500:00+22з368248 0.0 101795
03:00+21зсз36840 0.0 1017103
06:00+24сз25802 0.0 1016155
09:00+28зсз34647 0.0 1016506
12:00+31сз45531 0.0 10161299
15:00+31сз455714 0.0 10151085
18:00+29з367213 0.0 1014182
21:00+24зюз3381100 0.1 101445
26 июня, сб
сб2600:00+22зсз3479100 0.1 101470
03:00+19зсз3478100 0.5 101443
06:00+22з227879 0.0 101495
09:00+27зсз34666 0.0 1014527
12:00+30зсз35535 0.0 10141378
15:00+31ссз33515 0.1 10121425
18:00+23ссв598199 0.5 1014267
21:00+20ююз227823 0.7 101211
27 июня, вс
вс2700:00+20юз128581 0.3 101311
03:00+20зюз229062 0.3 101414
06:00+23зюз238213 0.0 1014124
09:00+27зюз226564 0.0 1014470
12:00+30зсз235398 0.1 10141410
15:00+30ссз445876 0.1 1013857
18:00+29з23680 0.2 1011115
21:00+20юз239586 2.5 101469
28 июня, пн
пн2800:00+20юз228989 0.1 101223
03:00+19зюз229413 0.2 101322
06:00+22ююз228810 0.0 1013120
09:00+27юз23706 0.0 1013569
12:00+30зсз12565 0.0 10131324
15:00+31вюв125013 0.0 10121862
18:00+29ююв237180 0.4 1011148
21:00+21ююз338691 2.8 101247